Regional Weather Roundup
Issued by NWS

Home | Current Version | Previous Version | Graphics & Text | Print | Product List | Glossary On
Versions: 1 2 3 4 5 6 7 8 9 10 11 12 13 14 15 16 17 18 19 20 21 22 23 24 25 26 27 28 29 30 31 32 33 34 35 36 37 38 39 40 41 42 43 44 45 46 47 48 49 50
624
ASUS43 KDTX 300610
RWRMI
MICHIGAN HOURLY REGIONAL WEATHER ROUNDUP
NATIONAL WEATHER SERVICE DETROIT/PONTIAC MI
200 AM EDT SUN APR 30 2017

NOTE: "FAIR" INDICATES FEW OR NO CLOUDS BELOW 12,000 FEET WITH NO
SIGNIFICANT WEATHER AND/OR OBSTRUCTION TO VISIBILITY.

MIZ047>049-052>055-059>063-066>070-074>076-081>083-300700-
SOUTHEAST LOWER MICHIGAN

CITY           SKY/WX    TMP DP  RH WIND       PRES   REMARKS
ADRIAN         RAIN      40  38  93 NW10      30.14R FOG     WCI  33
6HR MIN TEMP:  40; 6HR MAX TEMP:  47; 6HR PCP:  0.34;

ALMA           LGT SNOW  41  38  91 NE18G24   30.13F
ANN ARBOR      TSTM      43  34  70 E8        30.13R
BAD AXE        CLOUDY    42  31  65 NE13G18   30.16F
6HR MIN TEMP:  41; 6HR MAX TEMP:  42;

CARO           RAIN      43  33  67 NE7       30.16S
DETROIT CITY   LGT RAIN  43  39  86 E13       30.11F
6HR MIN TEMP:  42; 6HR MAX TEMP:  46; 6HR PCP:  0.02;

DETROIT        LGT RAIN  43  38  82 N8        30.11S
6HR MIN TEMP:  42; 6HR MAX TEMP:  48; 6HR PCP:  0.07;

FLINT          RAIN      42  35  76 NE12      30.14S
6HR MIN TEMP:  42; 6HR MAX TEMP:  48; 6HR PCP:  0.02;

GROSSE ILE     CLOUDY    43  40  88 NE13G20   30.08F
6HR MIN TEMP:  42; 6HR MAX TEMP:  45; 6HR PCP:  0.15;

HILLSDALE      RAIN      39  36  87 E12       30.06F WCI  32
HOWELL         MIX PCPN  40  35  80 SE3       30.15R
6HR MIN TEMP:  40; 6HR MAX TEMP:  49; 6HR PCP:  0.12;


CITY           SKY/WX    TMP DP  RH WIND       PRES   REMARKS
JACKSON        RAIN      41  37  86 E9        30.12F
6HR MIN TEMP:  41; 6HR MAX TEMP:  50; 6HR PCP:  0.37;

LAMBERTVILLE   LGT RAIN  44  40  86 NW10G22   30.14R
6HR MIN TEMP:  42; 6HR MAX TEMP:  45;

LANSING        TSTM      41  35  79 E12G20    30.12R
6HR MIN TEMP:  40; 6HR MAX TEMP:  48; 6HR PCP:  0.17;

LAPEER         CLOUDY    42  33  70 E9G17     30.13F
6HR MIN TEMP:  40; 6HR MAX TEMP:  44;

MASON          MIX PCPN  40  37  89 E6        30.13R
MONROE         CLOUDY    42  39  88 NE10      30.06F
MT. CLEMENS    LGT RAIN  43  39  87 NE21      30.07F
6HR MIN TEMP:  42; 6HR MAX TEMP:  44; 6HR PCP:  0.02;

PONTIAC        CLOUDY    43  34  70 NE9       30.09F
6HR MIN TEMP:  41; 6HR MAX TEMP:  47; 6HR PCP: TRACE;

PORT HOPE        N/A     43  37  79 NE18      30.18F
6HR MIN TEMP:  42; 6HR MAX TEMP:  43;

PORT HURON     LGT RAIN  41  36  81 NE10G17   30.14F
TRI CITIES     LGT RAIN  45  37  73 E14       30.19R
6HR MIN TEMP:  43; 6HR MAX TEMP:  45; 6HR PCP:  0.07;

MIDLAND        RAIN      43  36  75 NE8       30.19R
6HR MIN TEMP:  43; 6HR MAX TEMP:  45; 6HR PCP:  0.04;

TROY           CLOUDY    44  32  63 E8G16     30.14S
SAGINAW HB     LGT RAIN  41  34  75 CALM      30.20R
$$
MIZ043>046-050>051-056>058-064>065-071>073-077>080-300700-
SOUTHWEST LOWER MICHIGAN

CITY           SKY/WX    TMP DP  RH WIND       PRES   REMARKS
BATTLE CREEK   CLOUDY    42  38  85 E8G18     30.07F
6HR MIN TEMP:  42; 6HR MAX TEMP:  50; 6HR PCP:  0.21;

BENTON HARBOR  CLOUDY    46  37  71 E23G35    29.96F
6HR MIN TEMP:  46; 6HR MAX TEMP:  49; 6HR PCP:  0.45;

BIG RAPIDS     FLURRIES  40  34  79 E17G25    30.11S WCI  31
6HR MIN TEMP:  40; 6HR MAX TEMP:  48; 6HR PCP:  0.09;

COLDWATER      LGT RAIN  41  38  89 E13G23    30.01F
6HR MIN TEMP:  41; 6HR MAX TEMP:  49;

FREMONT        LGT RAIN  40  37  89 E12G24    30.09R WCI  33
HOLLAND        LGT RAIN  42  38  85 E22G32    30.02F
6HR MIN TEMP:  42; 6HR MAX TEMP:  48; 6HR PCP:  0.56;

GRAND RAPIDS   RAIN      40  40 100 E23G31    30.07F FOG     WCI  30
6HR MIN TEMP:  40; 6HR MAX TEMP:  47; 6HR PCP:  0.61;

IONIA          LGT RAIN  39  37  91 E14G21    30.12R WCI  31
6HR MIN TEMP:  39; 6HR MAX TEMP:  46; 6HR PCP:  0.24;

KALAMAZOO      CLOUDY    43  37  79 E12G23    30.02F
6HR MIN TEMP:  43; 6HR MAX TEMP:  50; 6HR PCP:  0.24;

LUDINGTON      DRIZZLE   41  38  89 E10G17    30.10R
6HR MIN TEMP:  40; 6HR MAX TEMP:  46; 6HR PCP:  0.13;

MARSHALL       LGT RAIN  41  40  96 NE10      30.06F
6HR MIN TEMP:  41; 6HR MAX TEMP:  51; 6HR PCP:  0.25;

MOUNT PLEASANT MIX PCPN  41  37  84 E10       30.16R
6HR MIN TEMP:  41; 6HR MAX TEMP:  46; 6HR PCP:  0.13;

MUSKEGON       HVY RAIN  42  39  89 E13G24    30.09R FOG
6HR MIN TEMP:  41; 6HR MAX TEMP:  49; 6HR PCP:  0.38;

SOUTH HAVEN    CLOUDY    44  38  80 E22G31    29.98F
$$
MIZ016>042-300700-
NORTHERN LOWER MICHIGAN

CITY           SKY/WX    TMP DP  RH WIND       PRES   REMARKS
ALPENA         CLOUDY    45  30  55 E16       30.25F
6HR MIN TEMP:  44; 6HR MAX TEMP:  47;

BEAVER ISLAND  CLOUDY    40  30  67 NE7       30.23F WCI  35
6HR MIN TEMP:  39; 6HR MAX TEMP:  44;

BELLAIRE       CLOUDY    44  29  55 NE7       30.18F
6HR MIN TEMP:  43; 6HR MAX TEMP:  46;

CADILLAC       LGT RAIN  40  36  87 E18       30.09F WCI  30
CHARLEVOIX     CLOUDY    41  29  61 E9        30.23F
6HR MIN TEMP:  41; 6HR MAX TEMP:  45;

FRANKFORT      CLOUDY    43  33  66 E7        30.11F
GAYLORD        CLOUDY    43  26  51 NE12      30.17F
6HR MIN TEMP:  43; 6HR MAX TEMP:  48;

GRAYLING       LGT RAIN  41  32  70 E12       30.17F
HARBOR SPRINGS CLOUDY    40  28  63 E9        30.21F WCI  34
HOUGHTON LAKE  LGT RAIN  41  35  79 E10       30.18F
6HR MIN TEMP:  41; 6HR MAX TEMP:  50; 6HR PCP:  0.02;

MANISTEE       LGT RAIN  42  37  82 E13       30.10F
OSCODA         CLOUDY    46  32  58 NE21G26   30.20F
6HR MIN TEMP:  45; 6HR MAX TEMP:  48;

PELLSTON       CLOUDY    40  27  59 NE9       30.23F WCI  34
6HR MIN TEMP:  40; 6HR MAX TEMP:  47;

ROGERS CITY    MOCLDY    39  33  77 NE3       30.27F
TRAVERSE CITY  LGT RAIN  44  35  70 NE8       30.14F
6HR MIN TEMP:  42; 6HR MAX TEMP:  45; 6HR PCP: TRACE;

$$
MIZ007>008-015-300700-
EASTERN UPPER MICHIGAN

CITY           SKY/WX    TMP DP  RH WIND       PRES   REMARKS
KINROSS        CLOUDY    38  29  70 NE8       30.27F WCI  32
6HR MIN TEMP:  37; 6HR MAX TEMP:  38;

MACKINAC ISLAN CLOUDY    38  31  74 E7        30.24F WCI  33
6HR MIN TEMP:  38; 6HR MAX TEMP:  42;

NEWBERRY       CLOUDY    33  31  91 N6        30.26F WCI  28
6HR MIN TEMP:  33; 6HR MAX TEMP:  37;

S. S. MARIE    CLOUDY    41  29  62 E3        30.27F
6HR MIN TEMP:  39; 6HR MAX TEMP:  41;

MUNISING         N/A     37  30  75 N10       30.27F WCI  30
6HR MIN TEMP:  36; 6HR MAX TEMP:  37;

$$
MIZ004>006-011>014-085-300700-
CENTRAL UPPER MICHIGAN

CITY           SKY/WX    TMP DP  RH WIND       PRES   REMARKS
MANISTIQUE     CLOUDY    36  28  74 N10       30.23F WCI  28
6HR MIN TEMP:  34; 6HR MAX TEMP:  41;

ESCANABA       CLOUDY    37  26  64 N8        30.24F WCI  31
6HR MIN TEMP:  37; 6HR MAX TEMP:  45;

MENOMINEE      CLOUDY    40  27  59 NE17      30.20F WCI  31
6HR MIN TEMP:  40; 6HR MAX TEMP:  45;

SAWYER-GWINN   CLOUDY    34  25  70 NE14      30.26F WCI  24
6HR MIN TEMP:  32; 6HR MAX TEMP:  35;

$$
MIZ001>003-009>011-084-300700-
WESTERN UPPER MICHIGAN

CITY           SKY/WX    TMP DP  RH WIND       PRES   REMARKS
IRON MOUNTAIN  CLOUDY    37  19  48 N10       30.23F WCI  30
6HR MIN TEMP:  37; 6HR MAX TEMP:  47;

HOUGHTON       CLOUDY    33  26  75 CALM      30.29F
6HR MIN TEMP:  31; 6HR MAX TEMP:  42;

COPPER HARBOR    N/A     33  25  72 W3        30.32F
6HR MIN TEMP:  31; 6HR MAX TEMP:  38;

IRONWOOD       CLOUDY    35  20  54 E7        30.27F WCI  29
6HR MIN TEMP:  33; 6HR MAX TEMP:  39;

$$

ABBREVIATIONS USED IN REMARKS
   TC - TEMPERATURE IN CELSIUS
  WCI - WIND CHILL INDEX
   HX - HEAT INDEX
  VSB - VISIBILITY





USA.gov is the U.S. government's official web portal to all federal, state and local government web resources and services.